Location: Bun Machan
(52.1403°N, 7.3744°W)
Time: 17:37:16
(UTC+00:00)

Okean 1 - Pass Details

Date: 14 July 2020
Orbit: 538 x 555 km, 82.5° (Epoch: 13 August)

Event Time Altitude Azimuth Distance (km) Brightness Sun altitude
Rises 01:51:04 0° 345° (NNW) 2,710 7.9 -14.4°
Reaches altitude 10° 01:53:16 10° 341° (NNW) 1,814 6.8 -14.3°
Maximum altitude 01:57:09 54° 265° (W) 663 3.5 -14.1°
Enters shadow 01:59:16 24° 197° (SSW) 1,135 4.3 -14.0°
